This is the latest recevied weather packets stored in our database for station/object NZ3C. If no packets are shown the sender has not sent any weather packets the latest 10 day(s).
| Time | Temp. | Humidity | Pressure | Rain* | Wind** | Luminosity | Snow |
|---|---|---|---|---|---|---|---|
| 1777644233 | 13.33° C | 56% | 1018.4 hPa | 0 mm | - | 119 W/m² | - |
| 1777643929 | 13.33° C | 56% | 1017.6 hPa | 0 mm | - | 155 W/m² | - |
| 1777643627 | 12.78° C | 61% | 1017.7 hPa | 0 mm | - | 323 W/m² | - |
| 1777643324 | 12.22° C | 59% | 1017.4 hPa | 0 mm | - | 259 W/m² | - |
| 1777643020 | 12.22° C | 61% | 1017.4 hPa | 0 mm | - | 152 W/m² | - |
| 1777642717 | 12.22° C | 61% | 1017.4 hPa | 0 mm | - | 149 W/m² | - |
| 1777642414 | 12.22° C | 61% | 1017.3 hPa | 0 mm | - | 80 W/m² | - |
| 1777642110 | 12.22° C | 61% | 1017.5 hPa | 0 mm | - | 74 W/m² | - |
| 1777641806 | 12.22° C | 59% | 1017.4 hPa | 0 mm | - | 65 W/m² | - |
| 1777641501 | 12.22° C | 60% | 1017.1 hPa | 0 mm | - | 98 W/m² | - |
| 1777641197 | 12.22° C | 63% | 1016.9 hPa | 0 mm | - | 94 W/m² | - |
| 1777640894 | 12.78° C | 63% | 1017 hPa | 0 mm | - | 119 W/m² | - |
| 1777640591 | 12.78° C | 64% | 1016.8 hPa | 0 mm | - | 226 W/m² | - |
| 1777640287 | 12.22° C | 64% | 1016.8 hPa | 0 mm | - | 341 W/m² | - |
| 1777639983 | 11.67° C | 69% | 1016.9 hPa | 0 mm | - | 230 W/m² | - |
| 1777639680 | 11.67° C | 68% | 1016.9 hPa | 0 mm | - | 160 W/m² | - |
| 1777639379 | 11.67° C | 69% | 1016.9 hPa | 0 mm | - | 137 W/m² | - |
| 1777639073 | 11.67° C | 67% | 1017.1 hPa | 0 mm | - | 90 W/m² | - |
| 1777638770 | 11.67° C | 68% | 1016.9 hPa | 0 mm | - | 56 W/m² | - |
| 1777638466 | 11.67° C | 66% | 1017.1 hPa | 0 mm | - | 55 W/m² | - |
| 1777638164 | 11.67° C | 66% | 1017.2 hPa | 0 mm | - | 43 W/m² | - |
| 1777637864 | 11.67° C | 66% | 1017.2 hPa | 0 mm | - | 39 W/m² | - |
| 1777637561 | 11.67° C | 66% | 1016.9 hPa | 0 mm | - | 75 W/m² | - |
| 1777637259 | 11.67° C | 64% | 1016.9 hPa | 0 mm | - | 58 W/m² | - |
| 1777636955 | 11.67° C | 65% | 1016.9 hPa | 0 mm | - | 43 W/m² | - |
* Rain latest hour (hover to see other rain measurements)
** Current wind speed in m/s (hover to see current wind gust speed)